Home > Weather > Buxtehude > Past weeks

Flag for Germany Past Weather in Buxtehude, Lower Saxony, Germany — Yesterday and Last 2 Weeks

Now
57 °F

Passing clouds.


Feels Like: 57 °F
Forecast: 54 / 66 °F
Wind: 3 mph from Southwest

Location: Hamburg-Fuhlsbuettel

Current Time: Jun 28, 2016 at 12:23:54 AM

Latest Report: Jun 27, 2016 at 11:50 PM


Visibility: N/A

Pressure: 30.01 "Hg

Humidity: 94%

Dew Point: 55 °F

Location of BuxtehudeLocation

Past Weather in Buxtehude — Graph

°F

Buxtehude Temperature Yesterday

Maximum temperature yesterday: 70 °F (at 1:20 PM)
Minimum temperature yesterday: 52 °F (at 4:20 AM)
Average temperature yesterday: 61 °F

High & Low Weather Summary for the Past Weeks

 TemperatureHumidityPressure
High90 °F (Jun 23, 5:50 PM)100% (Jun 14, 4:20 AM)30.21 "Hg (Jun 14, 4:20 AM)
Low46 °F (Jun 20, 1:20 AM)40% (Jun 23, 3:50 PM)29.45 "Hg (Jun 14, 12:20 PM)
Average63 °F81%29.87 "Hg
* Reported Jun 12 11:20 PM — Jun 27 11:20 PM, Buxtehude, Weather by CustomWeather, © 2016

Note: Actual official high and low records may vary slightly from our data, if they occured in-between our weather recording intervals... More about our weather records

Advertising

Buxtehude Weather History for the Previous 24 Hours

Scroll right to see more
 ConditionsComfort  
Time TempWeatherWind HumidityBarometerVisibility
11:20 PM
Mon, Jun 27
57 °FPassing clouds.2 mph94%30.01 "HgN/A
10:50 PM57 °FScattered clouds.5 mph94%30.01 "HgN/A
10:20 PM59 °FPartly sunny.5 mph94%30.01 "HgN/A
9:50 PM59 °FPartly sunny.7 mph94%30.01 "HgN/A
9:20 PM59 °FDrizzle. Broken clouds.10 mph94%29.98 "HgN/A
8:50 PM61 °FDrizzle. Broken clouds.9 mph94%29.98 "Hg4 mi
8:20 PM61 °FDrizzle. Broken clouds.10 mph94%29.98 "Hg4 mi
7:50 PM61 °FDrizzle. Partly sunny.12 mph94%29.98 "Hg4 mi
7:20 PM61 °FDrizzle. Broken clouds.12 mph88%29.98 "Hg4 mi
6:50 PM66 °FPartly sunny.12 mph68%29.98 "HgN/A
6:20 PM66 °FPartly sunny.12 mph64%29.98 "HgN/A
5:50 PM68 °FLight rain. Partly sunny.14 mph56%29.98 "HgN/A
5:20 PM68 °FPartly sunny.15 mph60%29.98 "HgN/A
4:50 PM68 °FPartly sunny.18 mph56%29.98 "HgN/A
4:20 PM68 °FPartly sunny.16 mph56%29.98 "HgN/A
3:50 PM68 °FPartly sunny.20 mph56%29.98 "HgN/A
3:20 PM68 °FBroken clouds.17 mph56%29.98 "HgN/A
2:50 PM68 °FBroken clouds.20 mph60%29.98 "HgN/A
2:20 PM68 °FScattered clouds.17 mph56%29.98 "HgN/A
1:50 PM70 °FScattered clouds.18 mph57%29.98 "HgN/A
1:20 PM70 °FScattered clouds.18 mph57%29.98 "HgN/A
12:50 PM68 °FScattered clouds.17 mph64%29.98 "HgN/A
12:20 PM68 °FScattered clouds.18 mph60%29.98 "HgN/A
11:50 AM66 °FScattered clouds.17 mph68%30.01 "HgN/A
11:20 AM66 °FScattered clouds.18 mph68%29.98 "HgN/A
10:50 AM66 °FScattered clouds.13 mph73%30.01 "HgN/A
10:20 AM64 °FScattered clouds.15 mph68%30.01 "HgN/A
9:50 AM64 °FScattered clouds.13 mph68%30.01 "HgN/A
9:20 AM61 °FScattered clouds.13 mph77%30.01 "HgN/A
8:50 AM61 °FScattered clouds.14 mph77%30.01 "HgN/A
8:20 AM59 °FPassing clouds.13 mph82%30.01 "HgN/A
7:50 AM59 °FPassing clouds.9 mph82%30.01 "HgN/A
7:20 AM57 °FPassing clouds.9 mph88%30.01 "HgN/A
6:50 AM57 °FSunny.7 mph88%30.01 "Hg10 mi
6:20 AM55 °FSunny.7 mph88%30.01 "Hg10 mi
5:50 AM54 °FClear.8 mph94%30.01 "Hg10 mi
5:20 AM54 °FClear.7 mph94%30.01 "Hg10 mi
4:50 AM54 °FClear.8 mph94%30.01 "Hg10 mi
4:20 AM52 °FClear.7 mph94%29.98 "Hg10 mi
3:50 AM54 °FClear.6 mph94%29.98 "Hg10 mi
3:20 AM54 °FClear.7 mph94%30.01 "Hg10 mi
2:50 AM54 °FClear.6 mph94%30.01 "Hg10 mi
2:20 AM55 °FClear.7 mph88%30.01 "Hg10 mi
1:50 AM55 °FClear.6 mph88%30.01 "Hg10 mi
1:20 AM55 °FClear.5 mph82%30.01 "Hg10 mi
12:50 AM55 °FClear.5 mph88%30.01 "Hg10 mi
12:20 AM55 °FClear.6 mph88%30.01 "Hg10 mi
Weather by CustomWeather, © 2016

See weather overviewHow to use our weather pages